TimeCDT,TemperatureF,Dew PointF,Humidity,Sea Level PressureIn,VisibilityMPH,Wind Direction,Wind SpeedMPH,Gust SpeedMPH,PrecipitationIn,Events,Conditions,WindDirDegrees,DateUTC
12:11 AM,41.0,37.4,87,29.77,10.0,NE,6.9,-,N/A,,Overcast,50,2013-05-22 05:11:00
12:31 AM,41.0,37.4,87,29.77,10.0,NE,6.9,-,N/A,,Overcast,50,2013-05-22 05:31:00
12:51 AM,42.8,39.2,87,29.77,10.0,NE,6.9,-,N/A,,Overcast,50,2013-05-22 05:51:00
1:11 AM,42.8,41.0,93,29.77,10.0,ENE,8.1,-,N/A,,Overcast,60,2013-05-22 06:11:00
1:31 AM,42.8,41.0,93,29.77,10.0,NE,3.5,-,N/A,,Overcast,40,2013-05-22 06:31:00
1:51 AM,42.8,37.4,81,29.76,10.0,NE,5.8,-,N/A,,Overcast,40,2013-05-22 06:51:00
2:11 AM,41.0,37.4,87,29.76,10.0,ENE,5.8,-,N/A,,Drizzle,60,2013-05-22 07:11:00
2:31 AM,41.0,37.4,87,29.76,7.0,ENE,5.8,-,N/A,,Light Drizzle,60,2013-05-22 07:31:00
2:51 AM,41.0,37.4,87,29.77,10.0,NE,5.8,-,N/A,,Overcast,50,2013-05-22 07:51:00
3:11 AM,41.0,37.4,87,29.76,7.0,NE,6.9,-,N/A,,Heavy Drizzle,50,2013-05-22 08:11:00
3:31 AM,39.2,37.4,93,29.76,4.0,NE,4.6,-,0.01,,Drizzle,50,2013-05-22 08:31:00
3:51 AM,39.2,37.4,93,29.77,5.0,NE,5.8,-,0.01,,Heavy Drizzle,40,2013-05-22 08:51:00
4:11 AM,39.2,37.4,93,29.77,4.0,NE,5.8,-,0.01,Rain,Heavy Rain,50,2013-05-22 09:11:00
4:31 AM,37.4,35.6,93,29.77,5.0,NE,5.8,-,0.02,,Drizzle,50,2013-05-22 09:31:00
4:51 AM,39.2,37.4,93,29.78,7.0,NE,4.6,-,0.02,,Light Drizzle,50,2013-05-22 09:51:00
5:11 AM,39.2,37.4,93,29.78,10.0,ENE,4.6,-,N/A,,Overcast,60,2013-05-22 10:11:00
5:31 AM,39.2,37.4,93,29.79,10.0,ENE,5.8,-,N/A,,Overcast,70,2013-05-22 10:31:00
5:51 AM,41.0,37.4,87,29.79,10.0,NE,5.8,-,N/A,,Overcast,50,2013-05-22 10:51:00
6:11 AM,41.0,37.4,87,29.79,10.0,ENE,4.6,-,N/A,,Overcast,60,2013-05-22 11:11:00
6:31 AM,41.0,37.4,87,29.79,10.0,ENE,4.6,-,N/A,,Overcast,60,2013-05-22 11:31:00
6:51 AM,41.0,37.4,87,29.78,10.0,NE,4.6,-,N/A,,Overcast,50,2013-05-22 11:51:00
7:11 AM,42.8,41.0,93,29.78,10.0,NE,3.5,-,N/A,,Overcast,40,2013-05-22 12:11:00
7:31 AM,42.8,41.0,93,29.79,10.0,ENE,5.8,-,N/A,,Overcast,60,2013-05-22 12:31:00
7:51 AM,42.8,41.0,93,29.80,10.0,NE,5.8,-,N/A,,Overcast,50,2013-05-22 12:51:00
8:11 AM,42.8,41.0,93,29.80,10.0,NE,5.8,-,N/A,,Overcast,40,2013-05-22 13:11:00
8:31 AM,42.8,41.0,93,29.81,10.0,NE,6.9,-,N/A,,Overcast,40,2013-05-22 13:31:00
8:51 AM,42.8,41.0,93,29.80,10.0,NE,5.8,16.1,N/A,,Overcast,40,2013-05-22 13:51:00
9:11 AM,42.8,41.0,93,29.81,10.0,NE,5.8,-,N/A,,Overcast,50,2013-05-22 14:11:00
9:31 AM,44.6,42.8,93,29.81,10.0,NE,8.1,-,N/A,,Overcast,40,2013-05-22 14:31:00
9:51 AM,44.6,41.0,87,29.81,10.0,NE,9.2,-,N/A,,Overcast,50,2013-05-22 14:51:00
10:11 AM,44.6,41.0,87,29.82,10.0,NE,8.1,16.1,N/A,,Overcast,50,2013-05-22 15:11:00
10:31 AM,44.6,41.0,87,29.82,10.0,NE,8.1,17.3,N/A,,Overcast,40,2013-05-22 15:31:00
10:51 AM,44.6,41.0,87,29.83,10.0,NE,10.4,16.1,N/A,,Overcast,40,2013-05-22 15:51:00
11:11 AM,44.6,41.0,87,29.83,10.0,NE,11.5,19.6,N/A,,Overcast,40,2013-05-22 16:11:00
11:31 AM,44.6,41.0,87,29.83,10.0,NE,6.9,24.2,N/A,,Overcast,40,2013-05-22 16:31:00
11:51 AM,44.6,41.0,87,29.84,10.0,NNE,8.1,17.3,N/A,,Overcast,30,2013-05-22 16:51:00
12:11 PM,44.6,41.0,87,29.84,10.0,NE,9.2,17.3,N/A,,Overcast,50,2013-05-22 17:11:00
12:31 PM,44.6,41.0,87,29.84,10.0,NNE,6.9,19.6,N/A,,Overcast,30,2013-05-22 17:31:00
12:51 PM,44.6,41.0,87,29.85,10.0,NE,9.2,-,N/A,,Light Drizzle,40,2013-05-22 17:51:00
1:11 PM,44.6,41.0,87,29.85,7.0,NNE,9.2,19.6,N/A,Rain,Light Rain,30,2013-05-22 18:11:00
1:31 PM,44.6,41.0,87,29.85,5.0,NNE,9.2,18.4,N/A,,Drizzle,30,2013-05-22 18:31:00
1:51 PM,44.6,41.0,87,29.86,5.0,NE,11.5,19.6,N/A,,Overcast,40,2013-05-22 18:51:00
2:11 PM,44.6,41.0,87,29.86,10.0,NE,8.1,19.6,N/A,,Overcast,50,2013-05-22 19:11:00
2:29 PM,44.6,41.0,87,29.87,7.0,NE,10.4,20.7,N/A,,Overcast,50,2013-05-22 19:29:00
2:51 PM,44.6,41.0,87,29.87,10.0,NNE,6.9,17.3,N/A,,Light Drizzle,30,2013-05-22 19:51:00
3:11 PM,44.6,41.0,87,29.88,5.0,NE,10.4,23.0,N/A,Rain,Rain,40,2013-05-22 20:11:00
3:31 PM,44.6,41.0,87,29.89,4.0,NNE,9.2,21.9,0.02,,Drizzle,30,2013-05-22 20:31:00
3:51 PM,44.6,42.8,93,29.90,7.0,NE,8.1,20.7,0.02,,Drizzle,40,2013-05-22 20:51:00
4:11 PM,44.6,42.8,93,29.90,5.0,NE,10.4,20.7,N/A,,Light Drizzle,40,2013-05-22 21:11:00
4:31 PM,44.6,42.8,93,29.91,7.0,NE,10.4,19.6,0.01,Rain,Rain,40,2013-05-22 21:31:00
4:51 PM,44.6,41.0,87,29.92,10.0,NE,11.5,20.7,0.01,Rain,Rain,50,2013-05-22 21:51:00
5:11 PM,44.6,41.0,87,29.92,10.0,NE,10.4,24.2,0.01,Rain,Light Rain,40,2013-05-22 22:11:00
5:31 PM,44.6,41.0,87,29.93,10.0,NE,8.1,18.4,0.01,,Drizzle,50,2013-05-22 22:31:00
5:51 PM,44.6,41.0,87,29.93,10.0,NE,8.1,-,0.01,,Light Drizzle,40,2013-05-22 22:51:00
6:11 PM,44.6,41.0,87,29.93,10.0,NE,8.1,-,N/A,,Overcast,50,2013-05-22 23:11:00
6:31 PM,46.4,41.0,81,29.93,10.0,ENE,8.1,17.3,N/A,,Light Drizzle,70,2013-05-22 23:31:00
6:51 PM,46.4,41.0,81,29.95,10.0,ENE,6.9,-,N/A,,Overcast,60,2013-05-22 23:51:00
7:11 PM,48.2,42.8,82,29.96,10.0,ENE,6.9,-,N/A,Rain,Light Rain,60,2013-05-23 00:11:00
7:31 PM,46.4,41.0,81,29.96,10.0,NE,4.6,-,N/A,,Overcast,50,2013-05-23 00:31:00
7:51 PM,46.4,41.0,81,29.97,10.0,NNE,3.5,-,N/A,,Overcast,30,2013-05-23 00:51:00
8:11 PM,46.4,41.0,81,29.97,10.0,NE,5.8,-,N/A,,Overcast,40,2013-05-23 01:11:00
8:31 PM,46.4,41.0,81,29.98,10.0,Calm,Calm,-,N/A,,Overcast,0,2013-05-23 01:31:00
8:51 PM,46.4,41.0,81,29.98,10.0,NNE,3.5,-,N/A,,Overcast,30,2013-05-23 01:51:00
9:11 PM,44.6,39.2,81,29.99,10.0,Calm,Calm,-,N/A,,Scattered Clouds,0,2013-05-23 02:11:00
9:31 PM,44.6,39.2,81,29.99,10.0,Calm,Calm,-,N/A,,Clear,0,2013-05-23 02:31:00
9:51 PM,44.6,39.2,81,30.00,10.0,Calm,Calm,-,N/A,,Clear,0,2013-05-23 02:51:00
10:11 PM,44.6,41.0,87,30.02,10.0,Calm,Calm,-,N/A,,Clear,0,2013-05-23 03:11:00
10:31 PM,44.6,39.2,81,30.02,10.0,Calm,Calm,-,N/A,,Clear,0,2013-05-23 03:31:00
10:51 PM,44.6,39.2,81,30.03,10.0,NNE,3.5,-,N/A,,Clear,20,2013-05-23 03:51:00
11:11 PM,44.6,37.4,76,30.04,10.0,Calm,Calm,-,N/A,,Clear,0,2013-05-23 04:11:00
11:31 PM,44.6,37.4,76,30.05,10.0,NE,4.6,-,N/A,,Clear,40,2013-05-23 04:31:00
11:51 PM,44.6,37.4,76,30.06,10.0,NNE,3.5,-,N/A,,Clear,30,2013-05-23 04:51:00